SCSE

La Florida Airport

Airport
ICAO code
SCSE
IATA Code
LSC
Summary
ICAO Region
CARSAM
ICAO Territory
Location

La Antena, Coquimbo

Serving
La Serena
Elevation
481 ft
Coordinates
29° 54' 58" S , 71° 11' 58" W
KCC
Metar
Observation
SCSE 050300Z AUTO 31003KT CAVOK 18/13 Q1013
Station
La Serena
Date/Time
2023-02-05 04:00:00
Wind direction
310°
Wind speed
03 kts
Lowest cloud amount
clouds and visibility OK
Temperature
18°C
Dew point
13°C
Humidity
72%
QNH
1013 hPa
Weather condition
n/a

Airport in La Serena, Chile.

Climatology

Cool desert climate (Köppen climate classification BWk)

Runways

Designator Length Width Surface Rops
11/29 1938 45 ASP Yes/Yes

Airport map

Aerial View

SKYbrary Partners:

Safety knowledge contributed by: